TimeCST,TemperatureF,Dew PointF,Humidity,Sea Level PressureIn,VisibilityMPH,Wind Direction,Wind SpeedMPH,Gust SpeedMPH,PrecipitationIn,Events,Conditions,WindDirDegrees,DateUTC
12:26 AM,19.4,15.8,86,30.16,1.8,West,4.6,-,0.00,Snow,Light Snow,260,2012-11-13 06:26:00
12:35 AM,19.4,15.8,86,30.17,0.8,WSW,6.9,-,0.00,Snow,Light Snow,250,2012-11-13 06:35:00
12:38 AM,19.4,15.8,86,30.16,1.0,WSW,5.8,-,0.00,Snow,Light Snow,250,2012-11-13 06:38:00
12:51 AM,19.4,15.8,86,30.16,3.0,Calm,Calm,-,0.00,Snow,Light Snow,0,2012-11-13 06:51:00
12:53 AM,19.9,16.0,85,30.24,2.5,West,3.5,-,0.00,Snow,Light Snow,280,2012-11-13 06:53:00
1:02 AM,19.4,15.8,86,30.17,1.0,West,3.5,-,0.00,Snow,Light Snow,280,2012-11-13 07:02:00
1:15 AM,19.4,15.8,86,30.17,2.0,West,3.5,-,0.00,Snow,Light Snow,270,2012-11-13 07:15:00
1:17 AM,19.4,15.8,86,30.17,3.0,Calm,Calm,-,0.00,Snow,Light Snow,0,2012-11-13 07:17:00
1:31 AM,19.4,15.8,86,30.17,2.5,West,3.5,-,0.00,Snow,Light Snow,270,2012-11-13 07:31:00
1:34 AM,19.4,15.8,86,30.17,3.0,West,4.6,-,0.00,Snow,Light Snow,270,2012-11-13 07:34:00
1:45 AM,19.4,15.8,86,30.18,7.0,West,4.6,-,0.00,,Overcast,280,2012-11-13 07:45:00
1:53 AM,19.9,16.0,85,30.25,9.0,Calm,Calm,-,0.00,,Overcast,0,2012-11-13 07:53:00
2:21 AM,19.4,17.6,93,30.19,2.5,Calm,Calm,-,0.00,Snow,Light Snow,0,2012-11-13 08:21:00
2:28 AM,19.4,17.6,93,30.19,1.2,Calm,Calm,-,0.00,Snow,Light Snow,0,2012-11-13 08:28:00
2:45 AM,19.4,17.6,93,30.20,1.0,West,3.5,-,0.00,Snow,Light Snow,260,2012-11-13 08:45:00
2:53 AM,19.9,17.1,89,30.28,1.0,Calm,Calm,-,0.01,Snow,Light Snow,0,2012-11-13 08:53:00
2:58 AM,19.4,17.6,93,30.20,2.0,WSW,3.5,-,0.00,Snow,Light Snow,250,2012-11-13 08:58:00
3:02 AM,19.4,17.6,93,30.20,2.5,West,5.8,-,0.00,Snow,Light Snow,260,2012-11-13 09:02:00
3:06 AM,19.4,15.8,86,30.20,1.8,West,4.6,-,0.00,Snow,Light Snow,260,2012-11-13 09:06:00
3:16 AM,19.4,15.8,86,30.20,1.2,West,3.5,-,0.00,Snow,Light Snow,260,2012-11-13 09:16:00
3:23 AM,19.4,15.8,86,30.20,1.8,Calm,Calm,-,0.00,Snow,Light Snow,0,2012-11-13 09:23:00
3:27 AM,19.4,15.8,86,30.20,3.0,Calm,Calm,-,0.00,Snow,Light Snow,0,2012-11-13 09:27:00
3:53 AM,19.9,16.0,85,30.28,10.0,WSW,6.9,-,0.00,,Overcast,240,2012-11-13 09:53:00
4:53 AM,19.9,16.0,85,30.29,10.0,Variable,4.6,-,N/A,,Overcast,0,2012-11-13 10:53:00
5:12 AM,19.4,15.8,86,30.22,10.0,SSW,6.9,-,N/A,,Overcast,200,2012-11-13 11:12:00
5:53 AM,19.0,16.0,88,30.30,10.0,Variable,3.5,-,N/A,,Overcast,0,2012-11-13 11:53:00
6:53 AM,19.0,15.1,85,30.31,10.0,South,4.6,-,N/A,,Overcast,190,2012-11-13 12:53:00
7:53 AM,19.0,15.1,85,30.33,10.0,South,3.5,-,N/A,,Overcast,190,2012-11-13 13:53:00
8:53 AM,19.9,16.0,85,30.33,10.0,South,4.6,-,N/A,,Mostly Cloudy,170,2012-11-13 14:53:00
9:18 AM,21.2,15.8,80,30.25,10.0,Variable,6.9,-,N/A,,Scattered Clouds,0,2012-11-13 15:18:00
9:53 AM,23.0,16.0,74,30.33,10.0,South,8.1,-,N/A,,Clear,190,2012-11-13 15:53:00
10:53 AM,26.1,16.0,66,30.32,10.0,South,8.1,-,N/A,,Clear,190,2012-11-13 16:53:00
11:53 AM,28.9,17.1,61,30.29,10.0,Variable,6.9,-,N/A,,Clear,0,2012-11-13 17:53:00
12:53 PM,30.9,18.0,59,30.29,10.0,SSW,8.1,-,N/A,,Clear,200,2012-11-13 18:53:00
1:53 PM,33.1,19.9,59,30.28,10.0,Variable,3.5,-,N/A,,Mostly Cloudy,0,2012-11-13 19:53:00
2:53 PM,33.1,19.9,59,30.27,10.0,SSW,3.5,-,N/A,,Scattered Clouds,210,2012-11-13 20:53:00
3:53 PM,33.1,19.9,59,30.28,10.0,Calm,Calm,-,N/A,,Clear,0,2012-11-13 21:53:00
4:53 PM,32.0,21.0,64,30.29,10.0,Calm,Calm,-,N/A,,Scattered Clouds,0,2012-11-13 22:53:00
5:53 PM,30.9,21.0,67,30.30,10.0,Calm,Calm,-,N/A,,Mostly Cloudy,0,2012-11-13 23:53:00
6:53 PM,30.0,21.0,69,30.30,10.0,Calm,Calm,-,N/A,,Overcast,0,2012-11-14 00:53:00
7:53 PM,27.0,21.0,78,30.31,10.0,Calm,Calm,-,N/A,,Overcast,0,2012-11-14 01:53:00
8:53 PM,25.0,19.9,81,30.31,10.0,Calm,Calm,-,N/A,,Partly Cloudy,0,2012-11-14 02:53:00
9:53 PM,21.9,18.0,85,30.31,10.0,Calm,Calm,-,N/A,,Mostly Cloudy,0,2012-11-14 03:53:00
10:53 PM,24.1,19.0,81,30.30,10.0,Calm,Calm,-,N/A,,Overcast,0,2012-11-14 04:53:00
11:53 PM,26.1,21.9,84,30.29,10.0,Calm,Calm,-,N/A,,Overcast,0,2012-11-14 05:53:00